Weather History for Ashland, WI

Change the Weather History Date:

Monday, October 10, 2011

  Actual Average Record
Temperature  
Mean Temperature 61 °F -  
Max Temperature 80 °F 56 °F 82 °F (1955)
Min Temperature 42 °F 37 °F 18 °F (1964)
Degree Days  
Heating Degree Days 4    
Growing Degree Days 11 (Base 50)    
Moisture  
Dew Point 46 °F    
Average Humidity 79    
Maximum Humidity 100    
Minimum Humidity 27    
Precipitation  
Precipitation 0.00 in - - ()
Sea Level Pressure  
Sea Level Pressure 30.12 in    
Wind  
Wind Speed 1 mph (South)    
Max Wind Speed 9 mph    
Max Gust Speed 17 mph    
Visibility 5 miles    
Events Fog    
Averages and records for this station are not official NWS values.
T = Trace of Precipitation, MM = Missing Value Source: NWS Daily Summary

Daily Weather History Graph

Daily Weather History Graph

Search for Another Location

Airport:

Trip Planner

Search our weather history database for the weather conditions in past years. The results will help you decide how hot, cold, wet, or windy it might be!

Date:

Astronomy

Oct. 10, 2011 Rise Set
Actual Time 7:14 AM CDT 6:26 PM CDT
Civil Twilight 6:43 AM CDT 6:56 PM CDT
Nautical Twilight 6:08 AM CDT 7:31 PM CDT
Astronomical Twilight 5:33 AM CDT 8:06 PM CDT
Moon 5:30 PM CDT (10/10) 5:54 AM CDT (10/10)
Length of Visible Light 12h 13m
Length of Day
11h 12m
Waxing Gibbous, 98% of the Moon is Illuminated
Oct 10
Waxing Gibbous
Oct 11
Full
Oct 19
Last Quarter
Oct 26
New
Nov 2
First Quarter

Hourly Weather History & Observations

Time (CDT) Temp. Windchill Dew Point Humidity Pressure Visibility Wind Dir Wind Speed Gust Speed Precip Events Conditions
12:12 AM 48.2 °F - 46.4 °F 93% 30.22 in 1.8 mi Calm Calm - N/A   Clear
12:37 AM 46.4 °F - 46.4 °F 100% 30.21 in 0.5 mi Calm Calm - N/A Fog Fog
12:48 AM 44.6 °F - 44.6 °F 100% 30.21 in 2.5 mi Calm Calm - N/A   Clear
12:53 AM 46.0 °F - 46.0 °F 100% 30.22 in 4.0 mi Calm Calm - N/A   Clear
1:06 AM 46.4 °F - 46.4 °F 100% 30.21 in 1.5 mi Calm Calm - N/A   Clear
1:17 AM 46.4 °F - 46.4 °F 100% 30.21 in 0.5 mi Calm Calm - N/A Fog Fog
1:24 AM 46.4 °F 45.2 °F 46.4 °F 100% 30.21 in 0.2 mi West 3.5 mph - N/A Fog Fog
1:53 AM 45.0 °F - 45.0 °F 100% 30.22 in 0.2 mi Calm Calm - N/A Fog Fog
2:15 AM 44.6 °F - 44.6 °F 100% 30.20 in 0.5 mi Calm Calm - N/A Fog Fog
2:34 AM 44.6 °F - 44.6 °F 100% 30.20 in 2.0 mi Calm Calm - N/A   Overcast
2:44 AM 44.6 °F - 44.6 °F 100% 30.20 in 1.0 mi Calm Calm - N/A   Overcast
2:53 AM 46.0 °F - 46.0 °F 100% 30.20 in 1.8 mi Calm Calm - N/A   Overcast
3:00 AM 46.4 °F - 46.4 °F 100% 30.19 in 3.0 mi Calm Calm - N/A   Overcast
3:05 AM 46.4 °F - 46.4 °F 100% 30.19 in 1.5 mi Calm Calm - N/A   Overcast
3:12 AM 46.4 °F - 46.4 °F 100% 30.19 in 0.2 mi Calm Calm - N/A Fog Fog
3:53 AM 48.0 °F - 48.0 °F 100% 30.20 in 0.2 mi Calm Calm - N/A Fog Fog
4:53 AM 46.9 °F - 46.9 °F 100% 30.19 in 0.5 mi Calm Calm - N/A Fog Fog
5:09 AM 46.4 °F - 46.4 °F 100% 30.18 in 0.2 mi Calm Calm - N/A Fog Fog
5:53 AM 45.0 °F - 45.0 °F 100% 30.19 in 0.5 mi Calm Calm - N/A Fog Fog
6:30 AM 42.8 °F - 42.8 °F 100% 30.17 in 0.2 mi Calm Calm - N/A Fog Fog
6:53 AM 42.1 °F - 42.1 °F 100% 30.19 in 0.2 mi Calm Calm - N/A Fog Fog
8:23 AM 44.6 °F - 44.6 °F 100% 30.16 in 1.0 mi Calm Calm - N/A   Mist
8:29 AM 46.4 °F - 46.4 °F 100% 30.16 in 3.0 mi Calm Calm - N/A   Scattered Clouds
8:53 AM 50.0 °F - 48.9 °F 96% 30.17 in 9.0 mi Calm Calm - N/A   Clear
9:53 AM 57.9 °F - 54.0 °F 87% 30.15 in 10.0 mi Calm Calm - N/A   Clear
10:53 AM 69.1 °F - 54.0 °F 58% 30.12 in 10.0 mi Calm Calm - N/A   Clear
11:53 AM 75.0 °F - 48.9 °F 40% 30.09 in 10.0 mi South 8.1 mph - N/A   Clear
1:53 PM 80.1 °F - 44.1 °F 28% 30.03 in 10.0 mi South 9.2 mph 17.3 mph N/A   Clear
2:53 PM 79.0 °F - 42.1 °F 27% 30.00 in 10.0 mi South 6.9 mph - N/A   Clear
3:53 PM 77.0 °F - 43.0 °F 30% 29.98 in 10.0 mi SSW 8.1 mph - N/A   Clear
4:53 PM 75.9 °F - 44.1 °F 32% 29.96 in 10.0 mi SSW 5.8 mph - N/A   Clear
5:53 PM 73.0 °F - 44.1 °F 35% 29.95 in 10.0 mi South 4.6 mph - N/A   Clear
6:53 PM 70.0 °F - 45.0 °F 41% 29.95 in 10.0 mi South 3.5 mph - N/A   Clear
7:53 PM 69.1 °F - 46.0 °F 44% 29.94 in 10.0 mi South 4.6 mph - N/A   Clear
8:53 PM 68.0 °F - 46.9 °F 47% 29.93 in 10.0 mi South 4.6 mph - N/A   Clear
9:53 PM 66.9 °F - 46.9 °F 49% 29.93 in 10.0 mi South 4.6 mph - N/A   Clear
10:53 PM 64.9 °F - 46.9 °F 52% 29.93 in 10.0 mi South 4.6 mph - N/A   Mostly Cloudy
11:53 PM 64.9 °F - 48.9 °F 56% 29.93 in 10.0 mi SW 5.8 mph - N/A   Overcast